Theta_e
319 320 322 325 326 325 324 325 326 326 327 326 326 325 326 326 326 326 326 327 325 325 324 325 325 325 326 326 327 327 326 325 326 324 323 326 325 326 329 329 329 328 328 328 328 324 321 318 322 326 326 331 332 334 334 335 337 338 340 340 338 337 339
322 321 321 323 322 325 325 325 325 325 326 327 325 324 324 324 325 325 326 325 323 322 322 322 324 325 326 326 326 326 325 324 324 324 323 321 323 322 323 324 324 325 325 326 328 328 322 320 320 321 323 327 330 333 336 337 337 339 339 338 337 337 338
319 320 320 321 323 324 324 325 324 324 324 323 323 323 321 319 320 321 320 320 320 319 318 319 320 321 322 323 324 325 326 325 324 324 322 322 322 322 322 322 320 320 321 322 323 322 324 325 317 317 321 320 319 328 333 334 336 337 337 338 337 335 336
320 320 320 321 321 322 323 324 324 323 323 321 321 322 320 320 321 321 320 320 320 319 317 317 319 317 319 320 320 321 322 322 322 323 322 322 322 321 321 320 318 318 318 317 318 320 320 320 318 317 318 319 318 320 327 331 333 333 332 334 334 334 336
322 320 320 320 322 322 322 322 323 323 322 321 320 319 321 322 321 320 320 320 319 319 317 318 319 319 319 319 319 319 319 320 320 319 320 319 320 319 319 319 319 319 319 318 318 318 318 318 318 317 316 317 318 320 322 328 328 327 326 327 330 333 334
323 321 320 321 322 320 321 321 322 321 321 320 318 319 320 322 321 321 320 318 318 319 318 317 318 318 318 318 318 319 319 318 318 318 316 318 317 317 316 318 317 318 317 318 318 318 318 318 317 314 315 316 314 316 317 318 319 323 324 323 325 327 331
325 323 321 321 322 320 321 321 322 321 321 322 320 319 321 321 321 322 321 320 319 319 318 319 319 318 319 316 317 317 317 317 318 318 317 318 317 316 316 315 316 314 315 317 317 317 316 314 313 314 314 313 314 311 314 314 316 315 319 322 324 325 326
327 324 321 322 324 321 322 322 321 322 321 322 322 321 321 322 323 322 321 320 319 319 318 318 317 318 318 317 318 318 318 317 317 317 316 317 316 315 315 315 314 315 314 313 313 315 314 315 314 314 312 309 309 311 311 312 314 314 314 318 320 320 324
327 326 324 323 324 324 323 322 321 323 322 324 324 323 322 323 322 322 321 320 319 319 319 318 317 316 317 316 316 317 316 316 317 317 316 317 316 315 315 315 314 313 314 312 313 313 312 314 314 314 313 311 307 305 310 309 311 312 317 316 319 322 323
328 327 325 326 326 326 324 323 322 323 324 324 324 325 323 323 323 323 322 321 320 319 319 318 317 317 317 317 316 316 316 316 316 315 316 316 315 316 314 314 314 314 313 314 313 313 314 314 314 313 313 310 311 307 305 306 309 311 315 317 316 321 321
329 329 328 328 328 326 324 323 323 323 324 324 326 325 325 324 323 322 322 321 321 319 318 318 317 316 317 315 316 315 315 316 315 315 314 314 314 314 313 313 314 313 314 314 314 313 314 314 313 313 314 313 313 309 308 306 306 311 311 316 316 315 322
329 329 329 329 329 326 324 323 322 323 326 324 325 325 324 323 323 322 322 321 320 319 318 318 317 317 316 315 315 314 315 315 313 313 313 313 313 313 312 312 312 312 312 314 314 315 314 313 313 313 313 314 313 313 310 309 306 311 315 313 316 318 317
327 327 329 329 327 326 324 323 323 323 324 324 324 324 323 322 323 322 321 320 320 319 318 318 317 317 317 316 315 314 314 313 312 312 311 312 310 312 311 311 311 310 311 310 313 312 312 313 313 311 312 313 313 313 312 310 308 308 314 314 315 316 316
327 327 328 329 328 327 326 325 324 324 324 323 323 323 322 322 321 322 321 320 319 319 318 318 318 317 316 315 314 314 312 312 311 311 311 311 310 310 308 309 309 311 312 311 311 311 311 310 311 312 311 310 310 312 311 310 308 308 312 316 316 314 316
327 327 327 328 328 326 326 325 326 324 324 323 322 322 321 322 322 322 320 320 319 318 318 317 317 316 315 314 314 314 313 311 310 310 310 309 310 309 310 309 307 309 310 308 311 309 309 309 308 309 309 311 309 310 312 309 307 307 307 312 312 314 314
325 327 327 326 327 326 326 326 325 325 323 323 322 322 321 322 322 321 321 320 319 318 317 316 316 315 314 314 312 313 312 312 311 310 310 308 307 308 309 309 309 309 310 309 309 311 311 310 310 308 309 309 309 310 309 309 308 306 306 307 311 310 312
324 325 326 326 326 327 325 325 325 324 323 323 322 322 321 321 321 321 320 320 319 318 317 316 315 315 314 313 312 311 311 311 311 310 308 308 307 307 308 308 308 308 309 307 308 307 308 310 310 309 309 310 310 309 311 310 309 307 306 305 308 308 310
324 325 325 326 326 326 326 325 325 323 323 322 322 322 321 322 321 320 320 319 319 318 317 316 315 314 314 314 312 311 310 310 310 309 309 308 307 308 307 307 307 307 307 307 307 307 307 307 306 306 306 306 307 308 309 310 309 309 307 306 307 309 310
324 325 326 327 326 326 325 325 324 324 323 322 323 322 321 321 320 319 319 320 319 318 317 316 314 314 313 313 312 311 311 310 309 308 308 307 306 307 307 306 306 306 306 306 306 307 308 307 307 307 307 306 306 306 307 307 308 308 307 306 307 307 309
325 325 325 326 326 326 325 325 324 323 323 322 322 322 322 321 321 320 319 320 318 318 316 315 314 314 313 312 311 310 310 310 309 308 306 305 305 306 305 305 305 306 306 306 305 306 307 307 307 307 307 307 307 307 306 306 306 306 306 305 306 307 307
324 324 325 325 326 326 326 325 324 324 323 322 322 322 321 319 320 319 319 319 318 318 316 314 314 313 312 312 311 310 309 308 307 306 306 305 305 304 304 304 304 304 304 305 306 306 306 305 305 306 307 307 307 306 306 305 305 305 305 305 304 305 306
320 321 322 323 324 324 325 325 324 323 323 322 323 322 321 319 319 319 319 319 317 316 315 314 314 312 311 311 311 309 308 305 305 304 304 304 304 303 303 304 303 303 303 299 297 297 298 298 299 300 302 304 305 304 305 305 304 303 303 303 303 305 304
316 319 321 322 322 323 323 324 324 323 322 322 322 321 320 320 319 319 318 317 316 315 314 314 307 301 304 310 309 306 306 305 304 303 303 303 303 303 303 303 304 299 300 298 297 295 294 294 296 299 300 302 302 303 303 303 302 303 303 302 302 303 302
316 317 319 321 322 322 323 323 323 322 322 321 321 319 319 319 319 318 317 315 314 314 313 307 294 294 294 297 305 306 305 304 303 302 302 302 302 302 302 301 303 302 302 300 300 294 293 293 293 293 294 295 297 299 300 300 301 302 301 302 302 303 302
312 315 317 318 320 321 322 321 321 322 321 321 320 319 318 318 317 317 317 315 314 313 310 296 292 292 294 294 297 304 304 303 302 302 302 301 301 301 301 301 302 302 303 302 300 300 298 294 292 292 292 292 292 292 293 298 299 299 301 301 301 302 302
310 312 315 318 319 320 319 319 319 320 320 321 321 319 318 316 316 316 315 313 312 310 304 292 292 292 292 292 292 298 303 302 301 302 302 301 301 301 301 301 301 301 302 299 299 301 302 302 296 292 292 292 292 292 291 290 292 298 299 299 300 300 301
309 310 313 317 318 318 318 318 319 319 320 320 319 318 318 317 316 315 314 313 311 308 302 293 291 291 292 291 290 294 302 302 302 301 300 301 301 301 301 300 299 300 301 301 302 301 301 301 300 300 301 301 301 299 293 291 290 291 294 297 298 297 300
308 309 311 313 316 317 317 318 317 317 318 318 318 317 316 315 314 313 312 311 309 305 300 291 291 291 291 290 289 293 303 302 301 302 302 302 301 301 301 301 301 300 300 300 301 299 299 298 299 299 299 299 300 300 301 301 301 301 299 298 299 300 300
309 310 310 312 314 315 316 316 316 317 317 317 316 316 315 314 312 311 310 308 305 302 298 290 290 290 290 290 289 298 301 301 301 301 301 301 301 301 301 300 300 300 300 299 296 291 294 297 297 297 296 298 298 299 300 298 296 296 299 300 301 301 302
308 309 310 310 312 314 315 315 315 316 315 315 314 313 313 312 311 309 307 305 304 300 296 292 290 290 290 289 292 299 301 301 301 301 301 301 301 301 301 300 300 299 299 299 294 290 290 291 296 296 296 296 297 297 298 300 296 293 292 292 292 291 291
308 309 310 311 311 314 315 316 315 316 314 313 312 312 312 309 308 306 304 302 301 299 296 293 290 290 290 289 293 300 301 300 300 300 300 301 301 301 301 299 298 298 298 299 292 289 289 293 295 295 295 295 295 295 296 298 299 299 293 291 291 291 291
308 309 309 311 312 313 314 314 314 315 314 313 311 309 307 306 304 303 303 302 300 300 297 294 290 290 290 289 295 300 299 299 299 299 299 298 300 300 300 299 297 297 297 296 290 290 289 291 295 294 294 293 293 293 295 297 297 296 297 297 297 297 296
309 309 310 311 313 314 314 313 314 314 313 311 308 306 304 303 302 302 302 301 301 301 299 296 294 289 290 290 291 297 298 296 297 297 298 298 298 299 299 299 298 292 290 290 289 288 288 288 293 294 293 292 291 291 295 295 295 295 294 294 294 294 294
309 310 311 312 313 313 313 312 313 312 308 306 305 303 302 302 301 300 300 301 300 300 301 299 295 289 290 290 289 290 296 297 298 298 298 297 297 297 297 297 298 294 289 289 288 288 288 288 289 292 292 291 292 292 291 292 292 290 291 292 292 292 293
309 310 311 312 312 311 312 312 311 310 306 304 303 302 301 300 299 298 299 300 300 300 298 297 298 290 289 289 289 289 295 298 297 296 295 295 295 296 296 296 298 294 287 288 287 288 288 288 288 291 291 288 288 287 290 291 290 290 290 290 290 291 291
309 310 310 311 311 311 311 309 307 306 304 303 302 301 300 300 299 297 297 297 299 299 299 296 293 295 289 290 289 289 289 292 290 295 295 295 295 295 297 297 298 291 287 287 288 287 288 287 288 290 288 287 287 287 288 290 289 289 289 289 290 290 290
308 309 310 310 310 309 308 305 304 303 303 302 300 299 299 298 298 297 297 297 298 299 299 299 292 291 293 287 288 288 287 287 288 294 295 295 295 296 297 298 295 288 288 287 287 288 288 288 290 288 287 287 287 287 290 289 288 289 288 288 288 289 289
Wind_Speed
4 5 5 5 4 4 5 5 5 4 4 5 4 4 4 4 4 4 4 4 4 4 4 4 4 4 4 4 4 3 3 3 3 4 3 3 1 3 2 2 1 0 2 3 4 3 4 4 3 3 10 4 5 3 4 4 3 2 3 4 5 6 5
5 5 5 5 5 5 5 4 4 5 5 4 4 5 5 5 4 4 4 4 4 4 4 5 5 6 5 5 4 4 4 4 3 2 2 2 2 3 2 1 2 2 2 3 1 2 4 5 4 6 3 3 7 5 2 3 4 3 4 4 5 6 5
6 5 5 6 5 5 6 5 5 4 5 5 5 6 6 6 6 6 5 5 5 5 5 6 6 6 5 5 5 5 5 5 4 4 4 2 2 1 2 2 3 3 4 3 3 2 3 5 4 5 5 5 4 2 1 4 6 5 5 5 6 7 7
8 6 6 6 6 6 6 6 5 5 5 6 6 6 6 6 6 6 5 6 5 5 5 5 4 5 5 5 5 5 5 4 4 5 4 3 2 2 1 2 2 2 3 4 4 4 5 5 5 6 6 6 5 5 4 5 4 6 7 6 6 6 6
9 7 7 7 7 7 6 6 5 5 5 6 6 6 6 6 6 6 6 6 5 5 5 4 4 5 5 4 4 4 4 5 4 3 4 4 3 3 2 2 2 1 1 2 2 2 3 4 5 6 6 6 6 5 3 3 5 7 8 7 6 6 5
9 8 7 6 6 6 6 6 6 6 6 6 6 6 7 7 6 6 6 5 5 5 5 5 5 5 5 5 5 5 5 5 4 4 4 4 3 2 2 1 1 1 1 1 2 2 3 4 5 6 6 6 6 7 7 7 6 6 6 6 7 7 6
8 8 7 7 7 6 5 6 6 6 6 6 7 7 7 7 6 6 6 6 6 6 5 5 5 5 5 5 5 5 5 5 5 5 5 4 3 3 1 0 1 0 1 1 2 2 3 3 4 4 6 6 6 8 7 7 7 6 4 5 4 4 4
7 7 7 7 8 7 6 7 6 6 6 6 7 7 8 6 6 6 6 7 7 6 6 5 5 5 4 4 5 5 4 4 4 3 4 3 3 3 2 1 1 0 1 1 2 3 3 3 4 4 4 6 6 6 7 6 6 7 6 6 7 6 5
7 7 7 7 7 8 7 7 7 7 6 7 7 8 8 7 7 7 7 7 7 7 6 6 5 5 4 4 4 4 4 3 4 4 3 3 3 3 2 1 1 1 1 1 3 1 3 3 4 4 4 4 6 7 5 6 6 5 4 5 4 2 4
9 9 8 9 9 8 8 8 7 8 7 7 7 8 9 8 8 8 7 8 7 7 6 6 6 6 5 4 4 4 4 4 3 4 3 3 3 1 2 2 3 1 1 2 2 3 3 3 4 4 5 5 4 6 6 7 5 5 4 4 4 3 5
9 10 9 9 9 8 8 8 7 7 8 8 8 8 9 9 8 9 8 8 7 7 7 6 6 7 6 5 5 5 4 4 3 3 3 3 2 2 2 2 2 1 3 3 2 3 3 3 4 4 4 5 5 6 6 7 7 5 6 5 6 6 3
10 9 9 9 9 9 10 9 9 8 8 9 9 9 10 10 9 9 8 8 7 7 7 6 6 6 6 6 6 5 5 4 3 3 3 2 2 1 1 1 1 1 2 2 2 2 2 3 4 4 4 5 5 5 7 7 8 5 3 5 4 5 7
10 9 9 9 9 10 11 11 10 10 9 9 9 11 10 11 10 10 9 8 8 8 7 7 6 6 6 5 5 5 5 5 5 4 3 2 2 1 1 1 0 2 2 3 2 2 3 2 3 5 5 5 5 5 6 7 9 9 6 7 7 7 8
10 9 9 8 9 9 10 10 10 10 10 10 10 11 11 11 11 11 11 10 10 9 8 7 6 6 5 5 4 5 6 5 5 4 3 4 3 1 1 1 1 1 1 3 3 3 3 3 4 4 4 5 5 5 6 7 9 9 7 5 6 7 7
9 9 9 9 9 9 9 9 10 10 11 11 12 12 12 11 11 11 10 11 10 10 9 8 7 6 5 6 6 4 5 5 4 4 3 2 3 2 1 1 1 1 2 3 3 5 4 3 4 5 4 4 5 5 5 7 8 8 9 7 7 7 7
11 11 11 10 10 10 9 9 9 10 10 10 12 12 12 12 12 12 11 11 10 10 10 9 7 7 6 7 6 5 5 4 4 4 3 2 1 1 2 1 1 1 1 3 3 4 4 5 5 5 5 5 6 6 7 7 8 9 10 9 8 8 7
12 12 11 10 11 10 9 9 9 10 11 10 11 12 13 13 13 12 12 11 11 10 10 9 9 8 8 8 7 7 6 5 4 3 2 1 0 1 1 1 1 1 1 3 3 3 4 4 4 5 6 6 6 7 7 7 8 9 9 10 8 8 8
12 13 12 9 10 10 10 9 8 10 10 10 11 11 12 13 13 14 12 13 12 12 11 10 10 9 8 8 7 6 6 5 4 3 2 1 2 2 2 2 2 2 2 3 3 3 3 5 5 6 6 6 7 7 6 6 8 9 10 11 10 9 9
12 14 14 12 11 10 10 10 10 9 10 11 11 11 12 11 11 13 13 13 13 12 12 11 11 10 9 8 7 6 5 5 4 3 3 2 1 1 2 2 2 3 3 4 4 3 4 6 5 6 7 7 7 7 8 9 9 10 11 11 10 10 9
9 11 11 11 10 11 11 11 11 11 10 11 12 12 12 13 11 12 13 13 13 13 12 11 10 10 9 9 8 7 6 5 4 3 2 2 1 1 2 2 2 3 4 4 4 5 5 6 5 7 7 7 7 7 7 8 9 10 11 11 10 10 10
8 9 9 9 9 10 11 11 11 11 10 12 12 13 13 14 13 13 13 13 12 11 11 11 10 10 9 8 7 7 6 4 3 3 3 2 2 1 1 2 2 2 3 4 4 5 6 6 6 7 7 7 7 8 8 8 9 9 10 10 10 9 8
7 8 8 9 9 10 11 11 11 11 10 11 10 12 13 14 14 14 13 13 12 11 10 9 9 9 9 8 7 6 5 5 4 3 3 3 2 1 1 1 2 1 3 5 6 7 8 8 7 8 8 8 8 9 9 9 9 9 10 10 11 10 10
7 7 7 7 8 10 11 11 11 12 12 12 11 11 12 12 13 14 14 13 12 10 9 7 7 8 4 7 7 5 5 5 4 3 2 2 2 1 1 2 1 3 4 7 8 9 10 10 10 9 9 8 9 9 9 10 10 10 10 11 11 10 11
6 7 7 7 7 8 9 9 10 11 12 12 12 11 11 12 11 10 13 13 13 11 9 7 13 11 9 4 4 5 5 4 3 3 3 2 2 2 2 2 4 3 8 10 11 14 13 12 12 13 13 14 13 11 10 11 11 11 11 11 11 11 11
8 7 7 7 7 7 7 8 10 10 10 11 10 10 11 12 14 14 11 12 12 11 9 13 14 13 11 6 2 3 3 3 3 3 3 2 2 2 2 3 3 3 4 4 7 7 8 13 14 14 13 14 14 15 16 13 12 11 11 12 12 12 12
8 8 7 7 7 7 8 8 8 9 10 10 9 10 11 11 12 12 12 12 11 10 10 13 14 13 11 9 5 2 4 3 3 3 3 3 3 3 3 4 4 4 3 4 6 6 7 7 8 13 13 14 15 16 15 17 18 16 14 14 14 15 13
8 8 8 7 7 8 7 8 8 8 9 9 10 11 11 12 12 12 12 12 11 10 12 13 15 13 12 10 8 4 3 4 3 3 4 4 4 4 4 5 5 5 5 5 6 6 6 7 9 8 8 9 10 12 18 21 20 20 19 16 16 16 14
8 8 9 8 8 8 8 7 7 8 9 10 11 10 11 12 11 10 11 11 11 11 10 15 14 14 12 10 8 5 3 3 4 5 5 5 5 6 6 5 6 6 6 6 5 5 8 9 9 9 9 10 10 11 11 12 12 14 14 15 17 17 16
9 9 9 9 9 9 8 7 7 8 8 7 7 8 9 10 11 12 11 11 11 11 11 16 14 14 13 10 10 5 4 5 5 5 5 6 6 6 6 6 6 6 7 7 6 3 5 7 10 11 11 11 11 11 11 12 12 10 13 14 13 12 12
9 9 9 10 9 9 8 8 8 8 9 8 8 9 9 10 10 10 10 10 10 9 10 11 13 13 13 11 8 5 4 4 5 5 6 6 7 7 7 7 6 7 8 9 4 4 1 4 10 11 12 12 12 12 12 11 11 15 17 17 17 19 20
10 10 9 10 10 8 8 7 8 8 9 8 8 8 8 8 8 8 9 10 10 10 10 10 12 12 12 13 9 4 3 4 5 6 7 7 7 7 7 5 8 10 10 9 3 3 1 5 10 11 12 13 14 13 13 11 11 11 12 15 16 17 18
11 11 11 10 9 9 8 8 8 8 9 7 7 7 8 8 8 8 8 9 10 10 10 10 12 13 11 12 8 4 4 5 5 6 6 7 7 7 7 7 11 11 10 10 6 5 5 7 10 12 14 15 15 15 14 14 14 14 14 14 13 12 13
11 11 11 10 10 9 7 7 8 9 8 6 7 7 7 8 9 7 6 7 4 5 8 8 11 10 10 10 9 4 4 6 7 7 7 7 8 8 9 9 9 12 12 9 6 6 7 8 9 13 14 14 14 15 13 14 14 13 14 14 14 15 16
11 11 10 10 9 9 8 8 8 9 7 6 7 8 8 8 8 8 7 6 6 4 4 6 8 10 8 6 3 3 5 7 7 7 7 8 8 10 10 10 9 5 8 6 6 6 8 8 9 13 15 15 15 14 13 14 16 17 16 16 16 15 15
11 10 10 10 10 9 9 9 8 8 6 8 10 9 7 7 8 7 6 6 5 5 3 2 6 8 8 6 5 4 6 5 5 6 8 9 10 10 10 10 11 7 10 7 6 7 9 11 12 14 16 18 17 16 16 17 16 15 14 14 13 13 14
11 9 10 10 11 12 8 7 6 6 8 8 9 9 8 8 8 6 5 3 3 4 4 4 4 7 9 7 8 9 6 5 2 5 7 9 10 11 11 11 9 11 17 16 16 16 17 17 16 15 16 15 15 15 15 15 15 15 14 14 14 15 14
12 11 11 11 10 9 7 7 6 6 8 9 8 8 7 7 6 6 5 4 4 4 5 5 6 4 8 8 6 4 5 6 6 6 7 9 10 10 10 9 10 17 17 17 17 17 17 17 15 18 18 19 19 17 14 15 14 14 14 14 14 15 15
Wind_Direction
155 132 140 130 117 119 118 128 128 126 119 107 104 99 102 103 99 102 105 99 106 108 112 100 98 93 93 80 58 50 33 27 31 26 38 34 327 92 65 45 16 17 296 270 271 296 297 307 273 211 277 345 315 310 306 305 280 224 194 241 229 219 224
145 141 146 141 136 130 130 128 127 118 109 99 95 102 104 105 105 97 93 91 85 96 104 104 94 90 81 76 82 67 59 59 50 36 13 35 18 31 339 4 300 285 255 223 213 228 280 276 271 256 226 203 266 258 239 259 284 286 259 246 259 269 235
157 149 158 146 146 151 139 138 137 138 127 121 115 113 113 107 103 104 99 94 88 74 72 82 94 93 93 92 81 79 82 89 75 54 52 61 59 49 329 324 292 323 302 249 222 302 264 230 274 284 279 272 263 229 203 258 248 248 248 243 245 251 253
164 162 164 160 158 165 153 153 154 141 139 127 127 125 119 117 112 104 104 104 98 96 96 100 95 98 99 98 90 86 82 79 83 84 81 67 66 79 19 17 20 359 340 332 332 324 319 301 289 278 278 271 267 262 247 244 256 255 251 237 242 247 251
168 172 179 173 171 171 162 160 157 151 148 141 143 137 136 129 125 119 117 115 109 106 101 97 103 104 105 102 102 99 95 90 91 93 89 89 83 85 61 38 30 1 349 324 358 308 294 298 296 291 287 289 286 283 289 264 263 274 267 259 242 232 226
179 179 183 183 180 179 171 169 165 167 158 161 157 154 148 148 137 138 137 126 119 111 106 103 95 95 97 95 97 99 92 86 80 82 84 73 58 39 82 71 352 357 8 1 306 311 308 302 286 284 285 310 299 297 285 274 256 242 255 257 252 243 234
185 183 187 188 185 192 180 175 179 176 173 172 165 164 158 161 152 141 136 127 121 122 118 110 110 109 109 108 106 97 96 91 92 94 93 91 86 80 31 59 31 45 354 319 312 288 296 299 300 306 309 301 297 286 288 279 271 267 230 235 234 259 263
190 189 194 192 187 191 188 180 187 181 181 176 170 164 162 164 146 142 138 136 135 130 126 120 115 111 104 100 98 97 90 92 95 83 82 85 87 79 55 6 141 186 313 287 284 289 287 288 288 299 303 305 298 285 287 290 297 280 280 271 283 268 260
200 196 198 194 189 192 191 189 188 185 184 173 169 161 169 165 158 150 151 146 145 144 139 137 133 121 119 113 105 102 100 100 102 104 106 96 72 56 37 358 277 44 311 330 280 303 297 304 287 273 268 277 296 300 301 297 294 291 319 306 296 291 295
200 201 197 189 188 188 194 197 195 188 179 176 166 165 172 171 167 165 160 155 156 154 150 146 138 133 136 124 112 112 106 101 89 78 62 68 82 51 52 357 339 351 20 329 305 307 297 286 283 288 280 276 279 280 289 292 289 293 295 333 315 348 324
207 203 201 192 190 190 193 198 200 189 182 177 169 169 174 174 173 174 168 166 162 161 158 155 151 146 146 134 131 127 114 119 120 108 98 85 66 69 44 15 343 354 19 310 346 311 296 296 284 279 276 269 261 268 279 282 284 286 284 283 262 270 286
218 214 207 199 192 192 195 198 198 196 184 178 173 172 176 178 179 179 178 173 168 167 166 162 160 160 155 140 146 135 140 141 122 119 101 94 85 80 59 64 343 14 344 295 281 250 258 261 270 267 264 269 269 267 274 275 278 263 267 285 291 299 304
222 220 212 202 199 199 196 197 196 195 191 184 180 178 183 183 182 183 182 179 176 174 172 170 176 163 166 154 156 143 136 147 139 138 129 120 113 107 131 198 36 339 349 305 263 296 281 258 281 285 277 270 267 260 267 272 272 278 287 292 295 290 285
227 227 226 214 212 208 204 199 197 194 190 192 185 184 189 188 188 188 186 184 183 180 176 177 177 174 174 161 150 139 148 151 151 136 143 149 144 127 30 341 266 246 273 291 308 294 276 298 276 268 274 279 273 268 266 272 278 284 284 283 285 288 296
234 231 227 224 222 220 209 205 200 194 194 192 190 190 193 191 193 192 192 190 188 186 184 180 179 183 178 163 152 153 157 155 148 136 147 142 143 162 176 296 323 325 302 300 288 287 291 286 284 274 262 265 279 282 274 283 285 288 291 293 287 291 295
237 233 227 226 224 221 216 209 202 200 198 194 193 194 196 194 195 195 194 194 192 190 189 182 180 184 178 177 171 163 164 158 156 155 159 155 176 128 194 209 213 175 228 267 277 275 282 271 282 293 289 287 288 288 287 281 288 288 292 292 293 289 285
253 244 233 227 225 219 218 213 207 207 206 200 197 196 198 198 196 197 196 196 194 189 188 181 182 186 183 182 176 170 168 166 166 167 168 197 279 266 282 260 213 228 248 265 278 294 280 282 275 283 289 277 266 266 271 279 273 280 287 288 290 289 293
270 265 258 248 232 225 221 221 215 212 208 206 202 197 199 200 199 198 197 197 193 188 188 184 185 185 179 178 175 169 175 167 170 178 190 211 208 256 276 280 293 299 279 277 273 271 300 301 294 291 289 289 284 283 276 267 273 276 281 282 286 285 286
256 255 252 250 249 239 230 225 220 214 212 211 205 202 201 199 203 202 200 198 193 189 188 186 187 184 176 170 169 172 171 173 177 191 193 224 231 234 259 283 287 285 296 285 286 288 285 286 289 284 284 287 292 297 292 289 281 274 273 275 277 281 274
266 259 259 258 257 253 245 237 227 220 211 211 207 199 190 195 197 206 204 199 194 190 188 186 185 179 171 170 171 170 173 177 186 181 201 203 201 219 256 275 284 282 279 289 289 285 284 284 276 278 275 275 275 276 277 279 282 284 283 283 281 277 279
282 276 273 270 266 260 254 248 243 237 221 214 210 199 197 201 203 204 204 197 191 188 185 185 181 171 173 170 169 171 169 179 179 170 170 182 163 200 209 242 266 288 292 298 318 309 305 289 292 285 280 279 278 277 275 275 273 275 277 278 279 284 283
301 287 278 268 260 255 254 251 244 235 224 213 206 207 210 209 206 202 197 189 184 179 180 176 173 173 169 169 170 167 167 166 167 166 173 163 173 193 236 235 256 303 7 346 331 302 293 301 291 279 277 278 275 273 271 269 270 270 270 270 273 275 277
281 282 275 265 260 259 255 248 244 241 235 225 216 219 223 217 208 197 186 180 176 169 169 175 109 120 139 168 168 157 159 166 169 166 178 182 192 219 264 276 255 153 225 232 240 239 240 246 249 262 279 284 278 275 271 272 271 269 271 272 272 275 276
284 276 272 271 265 254 250 251 244 242 236 234 229 218 212 204 191 196 190 177 169 166 161 127 121 114 100 85 153 156 161 155 163 190 196 203 256 255 270 292 304 200 207 219 221 217 232 238 234 240 248 256 269 276 279 274 271 270 271 274 273 270 268
291 290 283 272 263 260 254 251 247 243 239 233 224 210 207 203 203 199 188 177 167 161 144 128 129 128 127 130 94 147 158 168 185 211 205 236 243 268 282 289 286 293 281 295 310 288 235 214 220 229 231 239 243 249 254 263 270 270 267 269 269 266 267
293 293 288 280 272 260 253 250 247 243 239 233 229 225 215 203 198 186 180 169 161 147 132 138 133 135 134 130 131 216 178 171 221 207 232 248 265 278 285 288 283 280 290 182 243 269 292 290 219 207 221 226 232 235 240 238 243 255 271 271 271 270 265
291 290 288 278 269 261 251 246 246 244 239 230 229 229 222 207 195 185 175 168 159 145 139 146 144 147 146 149 157 218 182 178 232 242 240 250 253 265 269 279 286 284 285 287 292 284 300 298 300 289 269 268 270 237 221 227 234 236 238 251 258 263 266
288 286 284 280 271 262 256 249 243 243 238 232 226 224 220 210 197 178 170 166 153 141 140 152 152 150 148 154 163 217 195 189 232 234 235 242 249 254 259 256 265 279 286 291 294 306 295 296 296 290 281 277 271 272 277 266 241 230 227 227 242 253 264
283 279 274 271 267 261 254 246 243 243 239 223 211 216 209 195 178 174 167 151 140 139 145 157 153 153 151 155 165 204 200 212 237 245 252 255 253 258 258 263 270 279 290 291 305 153 235 291 293 287 284 279 276 275 273 267 260 276 285 290 281 277 280
282 277 275 269 261 256 250 240 237 241 237 225 201 197 191 182 171 160 144 136 127 128 139 161 153 153 155 157 173 216 216 237 251 250 256 263 262 262 262 263 270 287 290 286 319 66 142 265 291 286 285 283 281 281 276 277 252 224 224 241 260 274 280
280 273 267 264 260 253 245 240 243 236 232 215 200 192 179 163 153 134 125 125 135 141 152 160 162 160 161 168 198 233 256 266 268 271 273 270 271 270 270 224 248 269 275 279 323 101 86 284 287 289 289 290 288 283 282 280 276 266 227 216 227 239 251
279 274 269 265 260 252 242 238 242 232 226 208 189 168 161 150 124 119 123 128 132 139 148 162 169 168 172 177 206 244 274 280 280 276 280 280 276 280 283 258 210 225 256 275 288 266 247 255 278 290 293 291 287 282 282 284 282 281 279 275 265 251 243
274 270 269 267 261 252 244 237 232 227 217 184 157 146 124 116 110 96 92 102 96 116 139 163 175 167 171 180 210 273 305 293 283 284 285 291 297 291 288 286 271 209 218 239 261 261 249 242 264 288 290 283 281 278 282 282 283 289 285 279 275 272 272
275 271 267 265 263 255 244 236 225 217 184 156 146 138 132 125 120 122 125 133 135 122 124 151 155 168 174 164 154 251 270 287 292 298 299 300 294 294 293 293 293 338 110 144 193 216 232 236 250 280 282 277 273 285 303 288 285 288 279 274 272 270 269
272 269 266 263 258 250 241 235 221 202 167 155 149 138 124 119 122 121 129 144 138 130 90 57 142 157 134 143 159 215 268 288 344 305 297 290 291 286 291 295 293 38 48 6 336 304 286 280 274 280 278 278 284 287 281 278 281 279 274 270 268 267 266
271 267 263 262 253 243 222 207 173 148 142 139 129 127 126 123 119 115 120 134 132 143 158 161 137 145 155 169 176 204 220 283 341 276 286 287 290 289 287 292 290 16 340 329 317 310 300 291 285 279 281 280 275 274 273 274 273 271 266 264 262 262 260
265 262 260 255 244 230 197 179 147 139 133 135 130 120 123 121 117 125 139 154 164 170 176 153 153 166 146 168 172 193 201 225 255 276 298 292 287 287 287 298 329 331 311 299 289 285 284 283 284 283 277 274 272 271 273 274 267 263 263 262 261 257 255